Volver al catálogo

STARLINK-37590

ActivoComunicacionesVLEO
NORAD 69838·PAYLOAD·🇺🇸 United States

Lanzado Jul 5, 2026 desde Cape Canaveral Space Force Station

Loading…

Próximos Pases (próximas 24 horas)

TLE

ActualizadoSource: CelesTrak SupGP

Época: Sep 15, 2026, 04:11 UTC

1 69838C 26154V   26258.17479167  .00078137  00000+0  23083-2 0  2588
2 69838  53.1585 356.3422 0001173  93.9747 295.4638 15.34355283    16

Sigue STARLINK-37590 en tiempo real con AllMySat

Download on the App Store